This is the latest recevied weather packets stored in our database for station/object HB9CJD-1. If no packets are shown the sender has not sent any weather packets the latest 10 day(s).
| Time | Temp. | Humidity | Pressure | Rain* | Wind** | Luminosity | Snow |
|---|---|---|---|---|---|---|---|
| 1777727911 | 26.67° C | 32% | 1021.5 hPa | - | - | - | - |
| 1777727308 | 26.11° C | 36% | 1021.7 hPa | - | - | - | - |
| 1777727307 | 26.11° C | 36% | 1021.7 hPa | - | - | - | - |
| 1777726705 | 25.56° C | 32% | 1021.8 hPa | - | - | - | - |
| 1777726704 | 25.56° C | 32% | 1021.8 hPa | - | - | - | - |
| 1777726101 | 25° C | 34% | 1021.9 hPa | - | - | - | - |
| 1777726101 | 25° C | 34% | 1021.9 hPa | - | - | - | - |
| 1777725498 | 25.56° C | 32% | 1022.1 hPa | - | - | - | - |
| 1777725498 | 25.56° C | 32% | 1022.1 hPa | - | - | - | - |
| 1777724895 | 25° C | 31% | 1022.2 hPa | - | - | - | - |
| 1777724894 | 25° C | 31% | 1022.2 hPa | - | - | - | - |
| 1777724291 | 25° C | 34% | 1022.4 hPa | - | - | - | - |
| 1777724291 | 25° C | 34% | 1022.4 hPa | - | - | - | - |
| 1777723688 | 23.89° C | 36% | 1022.4 hPa | - | - | - | - |
| 1777723688 | 23.89° C | 36% | 1022.4 hPa | - | - | - | - |
| 1777723085 | 23.89° C | 35% | 1022.7 hPa | - | - | - | - |
| 1777723085 | 23.89° C | 35% | 1022.7 hPa | - | - | - | - |
| 1777722481 | 23.33° C | 39% | 1022.7 hPa | - | - | - | - |
| 1777722481 | 23.33° C | 39% | 1022.7 hPa | - | - | - | - |
| 1777721878 | 23.33° C | 39% | 1022.8 hPa | - | - | - | - |
| 1777721878 | 23.33° C | 39% | 1022.8 hPa | - | - | - | - |
| 1777721275 | 22.78° C | 39% | 1023 hPa | - | - | - | - |
| 1777721275 | 22.78° C | 39% | 1023 hPa | - | - | - | - |
| 1777720672 | 23.33° C | 39% | 1023.2 hPa | - | - | - | - |
| 1777720672 | 23.33° C | 39% | 1023.2 hPa | - | - | - | - |
* Rain since midnight (hover to see other rain measurements)
** Current wind speed in m/s (hover to see current wind gust speed)